Regional Weather Roundup
Issued by NWS Newport/Morehead, NC

Current Version | Previous Version | Graphics & Text | Print | Product List | Glossary Off
Versions: 1 2 3 4 5 6 7 8 9 10 11 12 13 14 15 16 17 18 19 20 21 22 23 24 25 26 27 28 29 30 31 32 33 34 35 36 37 38 39 40 41 42 43 44 45 46 47 48 49 50

211
ASUS42 KMHX 182214
RWRMHX
WEATHER ROUNDUP FOR EASTERN NORTH CAROLINA
NATIONAL WEATHER SERVICE NEWPORT/MOREHEAD CITY NC
600 PM EDT FRI AUG 18 2017

NOTE: "FAIR" INDICATES FEW OR NO CLOUDS BELOW 12,000 FEET
WITH NO SIGNIFICANT WEATHER AND/OR OBSTRUCTIONS TO VISIBILITY

NCZ015>017-031-032-045>047-102-103-182300-
NORTH COAST

CITY           SKY/WX    TMP DP  RH WIND       PRES   REMARKS
EDENTON        PTSUNNY   86  78  78 CALM      29.86F
ELIZABETH CITY MOSUNNY   84  78  82 S12       29.85F
KITTY HAWK     CLOUDY    81  74  81 CALM      29.86S
MANTEO         CLOUDY    82  75  80 SW13      29.87S

$$

NCZ045>047-081-094-103-104-182300-
CENTRAL COAST

CITY           SKY/WX    TMP DP  RH WIND       PRES   REMARKS
FRISCO         CLOUDY    86  82  88 SW12      29.89F HX 104

$$

NCZ095-097-098-100-101-182300-
SOUTHERN COAST

CITY           SKY/WX    TMP DP  RH WIND       PRES   REMARKS
BEAUFORT       MOSUNNY   86  83  90 S18       29.89F HX 106
CEDAR ISLAND   NOT AVBL
JACKSONVILLE   MOSUNNY   87  81  82 S12       29.87F HX 104
PINEY ISLAND   CLOUDY   N/A N/A N/A S13G23    29.88F
WILMINGTON     MOSUNNY   91  76  61 S13       29.89R HX 103


$$

NCZ011>013-027>030-043-044-078>080-089-090>093-098-182300-
COASTAL PLAIN

CITY           SKY/WX    TMP DP  RH WIND       PRES   REMARKS
AHOSKIE          N/A     86  79  79 SE10G16   29.84S
CLINTON        MOSUNNY   94  77  56 S7        29.87S HX 108
ELIZABETHTOWN  NOT AVBL
GOLDSBORO      SUNNY     95  75  52 SW10      29.84F HX 107
GREENVILLE     SUNNY     91  77  62 S13       29.87F HX 105
HAVELOCK       SUNNY     89  78  70 S15G22    29.89S HX 103
KENANSVILLE    MOSUNNY   91  77  62 SW6       29.86F HX 105
KINSTON        NOT AVBL
NEW BERN       SUNNY     89  80  74 S10       29.88F HX 106
RICHLANDS      MOSUNNY   91  78  65 S14       29.88R HX 106
ROCKY MOUNT    SUNNY     92  76  59 S12       29.84F HX 104
WASHINGTON     NOT AVBL
WHITEVILLE     MOSUNNY   92  78  62 S7        29.88S HX 106

$$

AMZ130-135-150-152-154-156-158-170-250-252-270-ANZ085-086-088-633-658-670-182300-
MARINE OBSERVATIONS

STATION/POSITION TIME  TEMP    WIND        PRES    WAVE   SWELL
                       AIR SEA DIR/SP/G            HT/PER HT/PER
                 (UTC) (F)     (DEG/KT/KT) (MB)    (FT/S) (FT/S)
CHESAPEAKE LIGHT NOT AVBL
64 E VA BEACH    2150   80 78  190/ 16/ 19 1010.9    3/ 4   2/ 9
DUCK             2148   83 74  180/ 13/ 19 1010.3
2 E DUCK         2200      79                N/A     2/ 8
OREGON INLET     2148          180/ 11/ 14 1011.2
13E OREGON INLT  2148      81                N/A     3/ 9   2/ 9
HATTERAS CG      2148   84 85  220/  9/ 14 1011.9
DIAMOND BUOY     2150   86 86  210/ 16/ 19 1012.0    3/ 5   2/ 9
CAPE LOOKOUT     2200   85     200/ 13/ 16 1012.1
BEAUFORT LAB     2148   85 82  200/ 14/ 17 1011.8
30 SE NEW RVR IN 2108   83 84  220/ 12/ 16 1012.9
30 SE NEW RVR IN 2143      84                N/A     3/ 5
27 SE WRIGHTSVLE 2108   85 84  200/ 14/ 19 1012.6
5 SE WRIGHTSVLE  2108   85 85  200/ 14/ 21 1012.3
225 S CAPE HAT   2150   84 85  210/ 10/ 12 1015.6    3/ 8   2/ 8
41 SE CHARLESTON 2200   84 86  200/ 14/ 17 1013.2

$$




USA.gov is the U.S. government's official web portal to all federal, state and local government web resources and services.